Zurück zum Katalog

STARLINK-35825

AktivKommunikationVLEO
NORAD 66567·PAYLOAD·🇺🇸 United States

Gestartet Nov 21, 2025 von Cape Canaveral Space Force Station

Loading…

Nächste Überflüge (nächste 24 Stunden)

TLE

AktuellSource: CelesTrak SupGP

Epoche: Sep 14, 2026, 22:43 UTC

1 66567C 25268L   26257.94701389 -.00006728  00000+0 -24363-3 0  2578
2 66567  43.0035 357.9494 0001434 268.4359 231.7780 15.27586595    19

Verfolge STARLINK-35825 in Echtzeit mit AllMySat

Download on the App Store